Terug naar catalogus

NOAA 16 DEB

ActiefSSO
NORAD 41220·DEBRIS·🇺🇸 United States

Gelanceerd Sep 21, 2000 vanaf Vandenberg Space Force Base

Loading…

Volgende Passages (komende 24 uur)

TLE

VersSource: Space-Track

Epoch: Sep 14, 2026, 01:38 UTC

1 41220U 00055DZ  26257.06854424  .00001743  00000-0  78837-3 0  9995
2 41220  98.6657 303.4999 0012689 282.8536  77.1225 14.23281218554830

Volg NOAA 16 DEB in realtime met AllMySat

Download on the App Store